Weather in Babayevo

Russia / Kostroma Oblast     57°32′29″N   40°42′24″E
temp.,
°C
wind,
m/s
gust,
m/s
humid.,
%
clouds,
%
prec.,
mm/h
press.,
hPa
HPBL,
m
19 april, mon
mon1900:00+5ene5118393 0.0 1027667
03:00+3ene51081100 0.0 1028475
06:00+2ene51174100 0.0 1028476
09:00+4e7105998 0.0 1029732
12:00+7e794713 0.0 10281346
15:00+9e794240 0.0 10281757
18:00+7e694514 0.0 10281545
21:00+3e6125510 0.0 1029519
20 april, tue
tue2000:00+1e6146387 0.0 1029471
03:000e513675 0.0 1029404
06:000e513648 0.0 1028474
09:00+5ese7125178 0.0 1028763
12:00+8ese81145100 0.0 10261405
15:00+10ese81246100 0.0 10241482
18:00+9ese8134937 0.0 10221339
21:00+6e71548100 0.0 1020795
21 april, wed
wed2100:00+4e81651100 0.0 1017733
03:00+3ese91663100 0.3 1014932
06:000e91997100 4.1 1010889
09:00+1ese91998100 6.6 1006867
12:00+3ese101995100 1.5 1003972
15:00+4sse91697100 2.7 10021117
18:00+2s91597100 0.6 1005877
21:00+3ssw71293100 0.8 10091079
22 april, thu
thu2200:00+3ssw71389100 0.1 1011756
03:00+3s51187100 0.1 1012429
06:00+4s6119128 0.0 1012571
09:00+6ssw71281100 0.0 10131013
12:00+8ssw71275100 0.4 10141284
15:00+6ssw6987100 0.5 1015675
18:00+8sw61077100 0.0 1016866
21:00+5ssw359283 0.0 101887
23 april, fri
fri2300:00+5s34945 0.0 101857
03:00+4s33940 0.0 101839
06:00+4sse369517 0.0 1018132
09:00+11s587516 0.0 1018460
12:00+15s695677 0.0 10171344
15:00+16ssw694510 0.3 10162169
18:00+14s5106133 0.1 1016533
21:00+12sse4107197 0.1 1015232